Weather History for KBDH - February, 2014

Change the Weather History Date:

Wednesday, February 19, 2014

  Actual Average (KLJF) Record (KLJF)
Temperature  
Mean Temperature 24 °F -  
Max Temperature 39 °F 28 °F 53 °F (1954)
Min Temperature 10 °F 10 °F -20 °F (1989)
Degree Days  
Heating Degree Days 40    
Moisture  
Dew Point 22 °F    
Average Humidity 85    
Maximum Humidity 100    
Minimum Humidity 70    
Precipitation  
Precipitation 0.00 in - - ()
Sea Level Pressure  
Sea Level Pressure 29.71 in    
Wind  
Wind Speed 7 mph (SSE)    
Max Wind Speed 20 mph    
Max Gust Speed 24 mph    
Visibility 7 miles    
Events Fog    
Averages and records for this station are not official NWS values.
T = Trace of Precipitation, MM = Missing Value Source: NWS Daily Summary

Daily Weather History Graph

Daily Weather History Graph

Search for Another Location

Airport or City:

Trip Planner

Search our weather history database for the weather conditions in past years. The results will help you decide how hot, cold, wet, or windy it might be!

Date:

Astronomy

Feb. 19, 2014 Rise Set
Actual Time 7:15 AM CST 5:54 PM CST
Civil Twilight 6:45 AM CST 6:24 PM CST
Nautical Twilight 6:11 AM CST 6:58 PM CST
Astronomical Twilight 5:37 AM CST 7:32 PM CST
Moon 11:03 PM CST (2/19) 9:07 AM CST (2/19)
Length of Visible Light 11h 38m
Length of Day
10h 38m
Waning Gibbous, 79% of the Moon is Illuminated
Feb 19
Waning Gibbous
Feb 22
Last Quarter
Mar 1
New
Mar 8
First Quarter
Mar 16
Full

Hourly Weather History & Observations

Time (CST) Temp. Windchill Dew Point Humidity Pressure Visibility Wind Dir Wind Speed Gust Speed Precip Events Conditions
12:16 AM 17.6 °F 9.3 °F 14.0 °F 86% 29.79 in 0.2 mi West 5.8 mph - N/A Fog Light Freezing Fog
12:35 AM 19.4 °F 12.8 °F 15.8 °F 86% 29.79 in 0.2 mi WSW 4.6 mph - N/A Fog Light Freezing Fog
12:56 AM 17.6 °F 12.3 °F 15.8 °F 93% 29.79 in 0.2 mi WSW 3.5 mph - N/A Fog Light Freezing Fog
1:15 AM 17.6 °F 9.3 °F 15.8 °F 93% 29.79 in 0.2 mi WSW 5.8 mph - N/A Fog Light Freezing Fog
1:35 AM 17.6 °F 10.7 °F 15.8 °F 93% 29.79 in 0.2 mi West 4.6 mph - N/A Fog Light Freezing Fog
1:56 AM 19.4 °F 12.8 °F 17.6 °F 93% 29.79 in 5.0 mi West 4.6 mph - N/A   Scattered Clouds
2:15 AM 19.4 °F 12.8 °F 17.6 °F 93% 29.79 in 7.0 mi West 4.6 mph - N/A   Clear
2:35 AM 21.2 °F 14.9 °F 17.6 °F 86% 29.80 in 10.0 mi West 4.6 mph - N/A   Clear
2:56 AM 19.4 °F 12.8 °F 17.6 °F 93% 29.79 in 10.0 mi West 4.6 mph - N/A   Clear
3:15 AM 19.4 °F 12.8 °F 17.6 °F 93% 29.78 in 10.0 mi West 4.6 mph - N/A   Clear
3:36 AM 19.4 °F 11.5 °F 17.6 °F 93% 29.78 in 7.0 mi West 5.8 mph - N/A   Clear
3:55 AM 19.4 °F 10.4 °F 17.6 °F 93% 29.78 in 5.0 mi West 6.9 mph - N/A   Clear
4:16 AM 21.2 °F 13.6 °F 17.6 °F 86% 29.79 in 3.0 mi West 5.8 mph - N/A   Clear
4:36 AM 19.4 °F 12.8 °F 17.6 °F 93% 29.79 in 1.0 mi West 4.6 mph - N/A   Clear
4:55 AM 15.8 °F 10.2 °F 10.4 °F 79% 29.79 in 0.2 mi West 3.5 mph - N/A Fog Light Freezing Fog
5:15 AM 12.2 °F - 8.6 °F 85% 29.79 in 0.2 mi Calm Calm - N/A Fog Light Freezing Fog
5:36 AM 14.0 °F - 10.4 °F 86% 29.79 in 0.2 mi Calm Calm - N/A Fog Light Freezing Fog
5:55 AM 12.2 °F - 10.4 °F 92% 29.79 in 0.2 mi Calm Calm - N/A   Overcast
6:16 AM 12.2 °F - 8.6 °F 85% 29.80 in 0.2 mi Calm Calm - N/A Fog Light Freezing Fog
6:35 AM 12.2 °F - 8.6 °F 85% 29.80 in 0.2 mi Calm Calm - N/A Fog Light Freezing Fog
6:56 AM 12.2 °F - 8.6 °F 85% 29.80 in 0.2 mi Calm Calm - N/A Fog Light Freezing Fog
7:15 AM 12.2 °F - 8.6 °F 85% 29.80 in 0.2 mi Calm Calm - N/A Fog Light Freezing Fog
7:35 AM 12.2 °F - 10.4 °F 92% 29.80 in 0.2 mi Calm Calm - N/A Fog Light Freezing Fog
7:56 AM 12.2 °F - 8.6 °F 85% 29.80 in 0.2 mi Calm Calm - N/A Fog Light Freezing Fog
8:15 AM 10.4 °F - 8.6 °F 92% 29.80 in 0.2 mi Calm Calm - N/A Fog Light Freezing Fog
8:36 AM 12.2 °F - 8.6 °F 85% 29.81 in 0.2 mi North - - N/A Fog Light Freezing Fog
8:55 AM 12.2 °F - 10.4 °F 92% 29.80 in 0.2 mi Calm Calm - N/A Fog Light Freezing Fog
9:15 AM 12.2 °F - 8.6 °F 85% 29.80 in 0.2 mi Calm Calm - N/A Fog Light Freezing Fog
9:36 AM 14.0 °F - 10.4 °F 86% 29.80 in 1.0 mi Calm Calm - N/A   Overcast
9:55 AM 17.6 °F - 15.8 °F 93% 29.80 in 10.0 mi Calm Calm - N/A   Scattered Clouds
10:16 AM 19.4 °F - 17.6 °F 93% 29.79 in 10.0 mi Calm Calm - N/A   Clear
10:35 AM 21.2 °F 16.4 °F 17.6 °F 86% 29.79 in 10.0 mi SE 3.5 mph - N/A   Clear
10:56 AM 23.0 °F 17.0 °F 21.2 °F 93% 29.79 in 10.0 mi SE 4.6 mph - N/A   Clear
11:15 AM 24.8 °F 20.5 °F 21.2 °F 86% 29.78 in 10.0 mi SSE 3.5 mph - N/A   Clear
11:36 AM 26.6 °F 22.6 °F 24.8 °F 93% 29.77 in 10.0 mi SE 3.5 mph - N/A   Clear
11:55 AM 28.4 °F 22.2 °F 26.6 °F 93% 29.76 in 10.0 mi SE 5.8 mph - N/A   Clear
12:16 PM 30.2 °F 24.3 °F 28.4 °F 93% 29.75 in 10.0 mi SSE 5.8 mph - N/A   Clear
12:35 PM 30.2 °F 24.3 °F 30.2 °F 100% 29.75 in 10.0 mi SSE 5.8 mph - N/A   Clear
12:55 PM 32.0 °F 26.4 °F 30.2 °F 93% 29.74 in 10.0 mi SSE 5.8 mph - N/A   Clear
1:16 PM 32.0 °F 24.8 °F 30.2 °F 93% 29.73 in 10.0 mi SSE 8.1 mph - N/A   Clear
1:35 PM 33.8 °F 25.8 °F 30.2 °F 87% 29.72 in 10.0 mi SSE 10.4 mph - N/A   Clear
1:55 PM 33.8 °F 25.3 °F 30.2 °F 87% 29.71 in 10.0 mi SSE 11.5 mph - N/A   Clear
2:15 PM 33.8 °F 25.3 °F 30.2 °F 87% 29.69 in 10.0 mi SE 11.5 mph - N/A   Clear
2:35 PM 33.8 °F 24.8 °F 32.0 °F 93% 29.69 in 10.0 mi SE 12.7 mph - N/A   Clear
2:56 PM 33.8 °F 23.9 °F 32.0 °F 93% 29.67 in 10.0 mi SE 15.0 mph - N/A   Clear
3:15 PM 33.8 °F 23.5 °F 32.0 °F 93% 29.66 in 10.0 mi SE 16.1 mph - N/A   Clear
3:35 PM 33.8 °F 23.9 °F 32.0 °F 93% 29.65 in 10.0 mi SE 15.0 mph - N/A   Clear
3:56 PM 33.8 °F 23.5 °F 32.0 °F 93% 29.65 in 10.0 mi SE 16.1 mph - N/A   Clear
4:15 PM 35.6 °F 25.9 °F 30.2 °F 81% 29.65 in 10.0 mi SE 16.1 mph - N/A   Clear
4:35 PM 35.6 °F 25.9 °F 30.2 °F 81% 29.64 in 10.0 mi SE 16.1 mph - N/A   Clear
4:56 PM 35.6 °F 26.6 °F 30.2 °F 81% 29.64 in 10.0 mi SE 13.8 mph - N/A   Clear
5:15 PM 35.6 °F 25.9 °F 30.2 °F 81% 29.64 in 10.0 mi SE 16.1 mph - N/A   Clear
5:36 PM 35.6 °F 25.9 °F 28.4 °F 75% 29.63 in 10.0 mi SE 16.1 mph - N/A   Clear
5:55 PM 35.6 °F 25.9 °F 28.4 °F 75% 29.62 in 10.0 mi SE 16.1 mph - N/A   Clear
6:16 PM 35.6 °F 25.2 °F 28.4 °F 75% 29.62 in 10.0 mi SE 18.4 mph - N/A   Clear
6:35 PM 35.6 °F 25.5 °F 28.4 °F 75% 29.61 in 10.0 mi SE 17.3 mph - N/A   Clear
6:56 PM 35.6 °F 24.8 °F 30.2 °F 81% 29.60 in 10.0 mi SE 19.6 mph 24.2 mph N/A   Clear
7:15 PM 35.6 °F 24.8 °F 30.2 °F 81% 29.60 in 10.0 mi SE 19.6 mph - N/A   Clear
7:35 PM 35.6 °F 25.2 °F 30.2 °F 81% 29.60 in 10.0 mi SE 18.4 mph - N/A   Clear
7:56 PM 37.4 °F 27.5 °F 30.2 °F 75% 29.59 in 10.0 mi SE 18.4 mph - N/A   Clear
8:15 PM 37.4 °F 27.5 °F 30.2 °F 75% 29.58 in 10.0 mi SSE 18.4 mph 24.2 mph N/A   Clear
8:35 PM 37.4 °F 27.8 °F 30.2 °F 75% 29.58 in 10.0 mi SSE 17.3 mph - N/A   Clear
8:56 PM 39.2 °F 29.8 °F 30.2 °F 70% 29.58 in 10.0 mi SSE 18.4 mph - N/A   Clear
9:15 PM 37.4 °F 27.5 °F 30.2 °F 75% 29.58 in 10.0 mi SSE 18.4 mph - N/A   Clear
9:35 PM 37.4 °F 27.8 °F 30.2 °F 75% 29.58 in 10.0 mi SSE 17.3 mph - N/A   Clear
9:55 PM 37.4 °F 27.8 °F 30.2 °F 75% 29.58 in 10.0 mi SSE 17.3 mph - N/A   Clear
10:15 PM 37.4 °F 28.2 °F 30.2 °F 75% 29.58 in 10.0 mi SSE 16.1 mph 23.0 mph N/A   Clear
10:36 PM 37.4 °F 28.5 °F 30.2 °F 75% 29.58 in 10.0 mi SSE 15.0 mph 20.7 mph N/A   Clear
10:55 PM 37.4 °F 28.9 °F 30.2 °F 75% 29.58 in 10.0 mi SSE 13.8 mph 19.6 mph N/A   Clear
11:15 PM 37.4 °F 28.9 °F 28.4 °F 70% 29.58 in 10.0 mi SSE 13.8 mph 19.6 mph N/A   Clear
11:36 PM 37.4 °F 31.4 °F 28.4 °F 70% 29.58 in 10.0 mi South 8.1 mph 16.1 mph N/A   Clear
11:55 PM 37.4 °F 31.4 °F 28.4 °F 70% 29.58 in 10.0 mi South 8.1 mph - N/A   Clear